Location: DARK SKY Beskydy - Park tmavé oblohy, www.darkskybeskydy.cz
(49.4926°N, 18.5016°E)
Time: 08:59:52
(UTC+02:00)

Transit 4A - Pass Details

Date: 29 February 2024
Orbit: 871 x 971 km, 66.8° (Epoch: 24 April)

Event Time Altitude Azimuth Distance (km) Brightness Sun altitude
Exits shadow 03:52:44 15° 327° (NNW) 2,263 9.8 -26.0°
Maximum altitude 03:54:24 16° 346° (NNW) 2,160 9.9 -25.8°
Drops below altitude 10° 03:58:02 10° 24° (NNE) 2,562 10.7 -25.2°
Sets 04:01:34 0° 46° (NE) 3,488 11.9 -24.7°
